Tracking 29042 objects as of 20-Jun-2024
HD Live streaming from Space Station
objects crossing your sky now

WEINA 2

Track WEINA 2 now!
10-day predictions


NORAD ID: 47303
Int'l Code: 2020-103B
Perigee: 693.0 km
Apogee: 696.1 km
Inclination: 98.1 °
Period: 98.5 minutes
Semi major axis: 7065 km
RCS: Unknown
Launch date: December 27, 2020
Source: People's Republic of China (PRC)
Launch site: Jiuquan Satellite Launch Center, China (JSC)
Your satellite tracking list
Your tracking list is empty




NASA's NSSDC Master Catalog

Two Line Element Set (TLE):
1 47303U 20103B   24172.59284989  .00001336  00000-0  27714-3 0  9990
2 47303  98.1354  63.7033 0002232   2.9860 357.1354 14.61783507185436
Source of the keplerian elements: AFSPC